Location: Shepherdstown, WV
(39.4326°N, 77.8042°W)
Time: 13:39:09
(UTC-04:00)

Courier 1B Rocket - Visible Passes

Search period start: 28 July 2021 00:00
Search period end: 07 August 2021 00:00
Orbit: 920 x 1202 km, 28.2° (Epoch: 27 July)

Date Brightness Start Highest point End Pass type
(mag) Time Alt. Az. Time Alt. Az. Time Alt. Az.
28 Jul 6.1 04:47:54 17° SSW 04:51:08 25° S 04:56:08 10° ESE visible
29 Jul 6.2 03:50:31 22° SSE 03:50:31 22° SSE 03:55:02 10° ESE visible
29 Jul 5.9 05:37:37 10° WSW 05:43:00 29° S 05:48:17 10° ESE visible
30 Jul 7.1 02:53:08 12° SE 02:53:08 12° SE 02:53:47 10° ESE visible
30 Jul 5.9 04:39:30 21° SSW 04:42:12 28° S 04:47:27 10° ESE visible
31 Jul 6.1 03:42:09 26° SSE 03:42:09 26° SSE 03:46:33 10° ESE visible
31 Jul 5.9 05:28:40 10° WSW 05:34:05 29° S 05:39:22 10° SE visible
01 Aug 7.1 02:44:50 13° ESE 02:44:50 13° ESE 02:45:33 10° ESE visible
01 Aug 5.8 04:31:12 25° SSW 04:33:16 30° S 04:38:40 10° ESE visible
02 Aug 6.1 03:33:56 27° SSE 03:33:56 27° SSE 03:37:53 10° ESE visible
02 Aug 6.0 05:20:18 12° WSW 05:25:08 27° S 05:30:17 10° SE visible
03 Aug 7.2 02:36:43 11° ESE 02:36:43 11° ESE 02:37:01 10° ESE visible
03 Aug 5.8 04:23:06 28° SSW 04:24:21 30° S 04:29:45 10° SE visible
04 Aug 6.3 03:25:59 24° SE 03:25:59 24° SE 03:29:06 10° ESE visible
04 Aug 6.1 05:12:22 14° WSW 05:16:10 24° SSW 05:21:04 10° SE visible
05 Aug 5.9 04:15:22 28° S 04:15:23 28° S 04:20:43 10° SE visible
06 Aug 6.7 03:18:28 17° SE 03:18:28 17° SE 03:20:12 10° SE visible
06 Aug 6.3 05:04:52 17° SW 05:07:08 20° SSW 05:11:34 10° SSE visible
